owner,sensor,date,latitude,longitude,vertical_datum,direction_of_sea_water_velocity,sea_water_speed,upward_sea_water_velocity,qcFlag 
ADCP,ioos:station:wmo:42875:1,2015-08-01T00:21:00Z,28.1540,-89.8360,57.1,205.0,3.1,-0.5,'1111122,1111122,1111122' 
ADCP,ioos:station:wmo:42875:1,2015-08-01T01:31:00Z,28.1540,-89.8360,57.0,203.0,4.3,-2.7,'1111122,1111122,1111122' 
ADCP,ioos:station:wmo:42875:1,2015-08-01T02:31:00Z,28.1540,-89.8360,57.0,227.0,9.0,-1.4,'1111122,1111122,1111122' 
ADCP,ioos:station:wmo:42875:1,2015-08-01T03:31:00Z,28.1540,-89.8360,57.0,271.0,7.4,-1.7,'1111122,1111122,1111122' 
ADCP,ioos:station:wmo:42875:1,2015-08-01T04:31:00Z,28.1540,-89.8360,57.0,261.0,10.0,-1.8,'1111122,1111122,1111122' 
ADCP,ioos:station:wmo:42875:1,2015-08-01T06:31:00Z,28.1540,-89.8360,57.1,269.0,13.1,-1.0,'1111122,1111122,1111122' 
ADCP,ioos:station:wmo:42875:1,2015-08-01T06:41:00Z,28.1540,-89.8360,57.1,272.0,11.6,-0.7,'1111122,1111122,1111122' 
ADCP,ioos:station:wmo:42875:1,2015-08-01T09:31:00Z,28.1540,-89.8360,57.1,285.0,4.1,-0.2,'1111122,1111122,1111122' 
ADCP,ioos:station:wmo:42875:1,2015-08-01T10:21:00Z,28.1540,-89.8360,57.0,274.0,4.8,0.3,'1111122,1111122,1111122' 
ADCP,ioos:station:wmo:42875:1,2015-08-01T11:31:00Z,28.1540,-89.8360,57.1,237.0,3.8,-1.3,'1111122,1111122,1111122' 
ADCP,ioos:station:wmo:42875:1,2015-08-01T12:31:00Z,28.1540,-89.8360,57.1,196.0,6.6,-0.8,'1111122,1111122,1111122' 
ADCP,ioos:station:wmo:42875:1,2015-08-01T13:21:00Z,28.1540,-89.8360,57.0,244.0,3.9,-1.6,'1111122,1111122,1111122' 
ADCP,ioos:station:wmo:42875:1,2015-08-01T14:31:00Z,28.1540,-89.8360,57.0,233.0,7.6,-2.0,'1111122,1111122,1111122' 
ADCP,ioos:station:wmo:42875:1,2015-08-01T15:21:00Z,28.1540,-89.8360,57.0,253.0,9.8,-2.8,'1111122,1111122,1111122' 
ADCP,ioos:station:wmo:42875:1,2015-08-01T18:11:00Z,28.1540,-89.8360,57.1,265.0,8.1,-1.6,'1111122,1111122,1111122' 
ADCP,ioos:station:wmo:42875:1,2015-08-02T00:21:00Z,28.1540,-89.8360,57.1,243.0,1.1,-1.9,'1111122,1111122,1111122' 
ADCP,ioos:station:wmo:42875:1,2015-08-02T01:31:00Z,28.1540,-89.8360,57.1,232.0,5.0,-1.2,'1111122,1111122,1111122' 
ADCP,ioos:station:wmo:42875:1,2015-08-02T02:31:00Z,28.1540,-89.8360,57.0,240.0,6.0,-1.9,'1111122,1111122,1111122' 
ADCP,ioos:station:wmo:42875:1,2015-08-02T03:31:00Z,28.1540,-89.8360,57.0,285.0,5.3,-1.3,'1111122,1111122,1111122' 
ADCP,ioos:station:wmo:42875:1,2015-08-02T06:31:00Z,28.1540,-89.8360,57.0,237.0,8.8,-0.4,'1111122,1111122,1111122' 
ADCP,ioos:station:wmo:42875:1,2015-08-02T09:31:00Z,28.1540,-89.8360,57.1,280.0,9.5,-0.7,'1111122,1111122,1111122' 
ADCP,ioos:station:wmo:42875:1,2015-08-02T10:31:00Z,28.1540,-89.8360,57.0,306.0,4.4,-0.8,'1111122,1111122,1111122' 
ADCP,ioos:station:wmo:42875:1,2015-08-02T11:31:00Z,28.1540,-89.8360,57.1,310.0,7.9,-0.6,'1111122,1111122,1111122' 
ADCP,ioos:station:wmo:42875:1,2015-08-02T12:31:00Z,28.1540,-89.8360,57.1,330.0,8.3,-1.6,'1111122,1111122,1111122' 
ADCP,ioos:station:wmo:42875:1,2015-08-02T21:01:00Z,28.1540,-89.8360,57.1,273.0,5.0,-0.5,'1111122,1111122,1111122' 
ADCP,ioos:station:wmo:42875:1,2015-08-09T12:22:00Z,28.1540,-89.8360,57.1,343.0,7.9,-2.4,'1111122,1111122,1111122' 
ADCP,ioos:station:wmo:42875:1,2015-08-09T13:22:00Z,28.1540,-89.8360,57.1,356.0,8.9,-1.9,'1111122,1111122,1111122' 
ADCP,ioos:station:wmo:42875:1,2015-08-09T14:22:00Z,28.1540,-89.8360,57.2,7.0,8.5,-2.0,'1111122,1111122,1111122' 
ADCP,ioos:station:wmo:42875:1,2015-08-09T15:22:00Z,28.1540,-89.8360,57.2,3.0,8.3,-1.9,'1111122,1111122,1111122' 
ADCP,ioos:station:wmo:42875:1,2015-08-09T16:22:00Z,28.1540,-89.8360,57.2,349.0,11.5,-2.6,'1111122,1111122,1111122' 
ADCP,ioos:station:wmo:42875:1,2015-08-09T17:22:00Z,28.1540,-89.8360,57.2,8.0,9.0,-1.4,'1111122,1111122,1111122' 
ADCP,ioos:station:wmo:42875:1,2015-08-09T18:12:00Z,28.1540,-89.8360,57.2,11.0,12.6,-2.1,'1111122,1111122,1111122' 
ADCP,ioos:station:wmo:42875:1,2015-08-09T19:22:00Z,28.1540,-89.8360,57.1,40.0,8.8,-2.4,'1111122,1111122,1111122' 
ADCP,ioos:station:wmo:42875:1,2015-08-09T19:42:00Z,28.1540,-89.8360,57.1,32.0,9.2,-2.0,'1111122,1111122,1111122' 
ADCP,ioos:station:wmo:42875:1,2015-08-09T21:22:00Z,28.1540,-89.8360,57.1,81.0,3.0,-1.5,'1111122,1111122,1111122' 
ADCP,ioos:station:wmo:42875:1,2015-08-09T22:22:00Z,28.1540,-89.8360,57.1,290.0,2.9,-2.0,'1111122,1111122,1111122' 
ADCP,ioos:station:wmo:42875:1,2015-08-09T23:22:00Z,28.1540,-89.8360,57.1,279.0,10.4,-1.0,'1111122,1111122,1111122' 
ADCP,ioos:station:wmo:42875:1,2015-08-10T00:22:00Z,28.1540,-89.8360,57.1,292.0,11.7,-1.3,'1111122,1111122,1111122' 
ADCP,ioos:station:wmo:42875:1,2015-08-10T01:22:00Z,28.1540,-89.8360,57.1,303.0,14.1,-3.5,'1111122,1111122,1111122' 
ADCP,ioos:station:wmo:42875:1,2015-08-10T02:22:00Z,28.1540,-89.8360,57.1,310.0,12.5,-2.1,'1111122,1111122,1111122' 
ADCP,ioos:station:wmo:42875:1,2015-08-10T03:22:00Z,28.1540,-89.8360,57.1,315.0,13.0,-1.5,'1111122,1111122,1111122' 
ADCP,ioos:station:wmo:42875:1,2015-08-10T04:22:00Z,28.1540,-89.8360,57.1,334.0,14.9,-3.7,'1111122,1111122,1111122' 
ADCP,ioos:station:wmo:42875:1,2015-08-10T06:22:00Z,28.1540,-89.8360,57.1,351.0,11.2,0.5,'1111122,1111122,1111122' 
ADCP,ioos:station:wmo:42875:1,2015-08-10T07:22:00Z,28.1540,-89.8360,57.1,359.0,8.5,-0.6,'1111122,1111122,1111122' 
ADCP,ioos:station:wmo:42875:1,2015-08-10T08:22:00Z,28.1540,-89.8360,57.1,355.0,5.6,-0.9,'1111122,1111122,1111122' 
ADCP,ioos:station:wmo:42875:1,2015-08-10T09:22:00Z,28.1540,-89.8360,57.1,333.0,4.7,0.1,'1111122,1111122,1111122' 
ADCP,ioos:station:wmo:42875:1,2015-08-10T10:22:00Z,28.1540,-89.8360,57.1,343.0,4.1,1.5,'1111122,1111122,1111122' 
ADCP,ioos:station:wmo:42875:1,2015-08-10T11:22:00Z,28.1540,-89.8360,57.1,321.0,5.7,1.6,'1111122,1111122,1111122' 
ADCP,ioos:station:wmo:42875:1,2015-08-10T12:22:00Z,28.1540,-89.8360,57.1,284.0,2.5,-1.5,'1111122,1111122,1111122' 
ADCP,ioos:station:wmo:42875:1,2015-08-10T13:22:00Z,28.1540,-89.8360,57.1,310.0,9.7,-1.6,'1111122,1111122,1111122' 
ADCP,ioos:station:wmo:42875:1,2015-08-10T14:22:00Z,28.1540,-89.8360,57.1,321.0,11.3,-1.5,'1111122,1111122,1111122' 
ADCP,ioos:station:wmo:42875:1,2015-08-10T15:22:00Z,28.1540,-89.8360,57.1,317.0,10.2,-1.3,'1111122,1111122,1111122' 
ADCP,ioos:station:wmo:42875:1,2015-08-10T16:22:00Z,28.1540,-89.8360,57.2,335.0,6.3,-2.2,'1111122,1111122,1111122' 
ADCP,ioos:station:wmo:42875:1,2015-08-10T17:22:00Z,28.1540,-89.8360,57.2,344.0,3.3,-0.5,'1111122,1111122,1111122' 
ADCP,ioos:station:wmo:42875:1,2015-08-10T18:22:00Z,28.1540,-89.8360,57.1,329.0,6.2,-1.5,'1111122,1111122,1111122' 
ADCP,ioos:station:wmo:42875:1,2015-08-10T19:22:00Z,28.1540,-89.8360,57.1,345.0,6.0,-2.7,'1111122,1111122,1111122' 
ADCP,ioos:station:wmo:42875:1,2015-08-10T20:22:00Z,28.1540,-89.8360,57.1,313.0,7.8,-1.8,'1111122,1111122,1111122' 
ADCP,ioos:station:wmo:42875:1,2015-08-10T21:22:00Z,28.1540,-89.8360,57.1,314.0,6.2,-1.0,'1111122,1111122,1111122' 
ADCP,ioos:station:wmo:42875:1,2015-08-10T22:02:00Z,28.1540,-89.8360,57.1,291.0,7.7,-2.5,'1111122,1111122,1111122' 
ADCP,ioos:station:wmo:42875:1,2015-08-11T05:23:00Z,28.1540,-89.8360,57.1,243.0,6.8,-0.7,'1111122,1111122,1111122' 
ADCP,ioos:station:wmo:42875:1,2015-08-11T06:23:00Z,28.1540,-89.8360,57.1,228.0,10.3,-2.3,'1111122,1111122,1111122' 
ADCP,ioos:station:wmo:42875:1,2015-08-11T07:23:00Z,28.1540,-89.8360,57.1,231.0,8.2,0.0,'1111122,1111122,1114422' 
ADCP,ioos:station:wmo:42875:1,2015-08-11T08:23:00Z,28.1540,-89.8360,57.1,246.0,13.1,0.6,'1111122,1111122,1111122' 
ADCP,ioos:station:wmo:42875:1,2015-08-11T09:23:00Z,28.1540,-89.8360,57.1,245.0,11.5,0.7,'1111122,1111122,1111122' 
ADCP,ioos:station:wmo:42875:1,2015-08-11T10:23:00Z,28.1540,-89.8360,57.1,252.0,12.0,0.8,'1111122,1111122,1111122' 
ADCP,ioos:station:wmo:42875:1,2015-08-11T11:23:00Z,28.1540,-89.8360,57.1,262.0,6.8,-0.6,'1111122,1111122,1111122' 
ADCP,ioos:station:wmo:42875:1,2015-08-11T12:23:00Z,28.1540,-89.8360,57.1,248.0,3.7,-2.4,'1111122,1111122,1111122' 
ADCP,ioos:station:wmo:42875:1,2015-08-11T13:23:00Z,28.1540,-89.8360,57.1,249.0,4.3,-2.7,'1111122,1111122,1111122' 
ADCP,ioos:station:wmo:42875:1,2015-08-11T14:23:00Z,28.1540,-89.8360,57.1,222.0,6.4,-2.9,'1111122,1111122,1111122' 
ADCP,ioos:station:wmo:42875:1,2015-08-11T15:23:00Z,28.1540,-89.8360,57.2,241.0,6.4,-2.5,'1111122,1111122,1111122' 
ADCP,ioos:station:wmo:42875:1,2015-08-11T16:23:00Z,28.1540,-89.8360,57.2,229.0,9.7,-2.2,'1111122,1111122,1111122' 
ADCP,ioos:station:wmo:42875:1,2015-08-11T17:23:00Z,28.1540,-89.8360,57.2,199.0,6.1,-2.6,'1111122,1111122,1111122' 
ADCP,ioos:station:wmo:42875:1,2015-08-11T18:23:00Z,28.1540,-89.8360,57.1,202.0,4.8,-2.5,'1111122,1111122,1111122' 
ADCP,ioos:station:wmo:42875:1,2015-08-11T19:23:00Z,28.1540,-89.8360,57.1,259.0,8.1,-3.1,'1111122,1111122,1111122' 
ADCP,ioos:station:wmo:42875:1,2015-08-11T20:23:00Z,28.1540,-89.8360,57.1,233.0,10.9,-2.1,'1111122,1111122,1111122' 
ADCP,ioos:station:wmo:42875:1,2015-08-11T21:13:00Z,28.1540,-89.8360,57.2,234.0,7.5,-3.0,'1111122,1111122,1111122' 
ADCP,ioos:station:wmo:42875:1,2015-08-11T23:13:00Z,28.1540,-89.8360,57.2,227.0,6.7,-1.9,'1111122,1111122,1111122' 
ADCP,ioos:station:wmo:42875:1,2015-08-12T00:23:00Z,28.1540,-89.8360,57.2,250.0,10.2,-2.9,'1111122,1111122,1111122' 
ADCP,ioos:station:wmo:42875:1,2015-08-12T01:23:00Z,28.1540,-89.8360,57.1,215.0,10.9,-1.9,'1111122,1111122,1111122' 
ADCP,ioos:station:wmo:42875:1,2015-08-12T02:23:00Z,28.1540,-89.8360,57.1,232.0,9.0,-3.0,'1111122,1111122,1111122' 
ADCP,ioos:station:wmo:42875:1,2015-08-12T03:23:00Z,28.1540,-89.8360,57.1,216.0,11.7,-1.5,'1111122,1111122,1111122' 
ADCP,ioos:station:wmo:42875:1,2015-08-12T04:23:00Z,28.1540,-89.8360,57.1,203.0,12.1,-1.8,'1111122,1111122,1111122' 
ADCP,ioos:station:wmo:42875:1,2015-08-12T05:23:00Z,28.1540,-89.8360,57.1,221.0,12.1,-1.9,'1111122,1111122,1111122' 
ADCP,ioos:station:wmo:42875:1,2015-08-12T06:23:00Z,28.1540,-89.8360,57.1,201.0,12.4,-1.5,'1111122,1111122,1111122' 
ADCP,ioos:station:wmo:42875:1,2015-08-12T06:43:00Z,28.1540,-89.8360,57.1,216.0,17.2,-0.7,'1111122,1111122,1111122' 
ADCP,ioos:station:wmo:42875:1,2015-08-12T09:23:00Z,28.1540,-89.8360,57.2,216.0,11.1,-1.1,'1111122,1111122,1111122' 
ADCP,ioos:station:wmo:42875:1,2015-08-12T10:23:00Z,28.1540,-89.8360,57.2,225.0,11.8,-0.8,'1111122,1111122,1111122' 
ADCP,ioos:station:wmo:42875:1,2015-08-12T11:23:00Z,28.1540,-89.8360,57.2,237.0,14.3,-0.3,'1111122,1111122,1111122' 
ADCP,ioos:station:wmo:42875:1,2015-08-12T12:23:00Z,28.1540,-89.8360,57.2,233.0,9.4,-2.6,'1111122,1111122,1111122' 
ADCP,ioos:station:wmo:42875:1,2015-08-12T13:23:00Z,28.1540,-89.8360,57.1,228.0,11.0,-2.6,'1111122,1111122,1111122' 
ADCP,ioos:station:wmo:42875:1,2015-08-12T14:23:00Z,28.1540,-89.8360,57.2,222.0,9.4,-3.4,'1111122,1111122,1111122' 
ADCP,ioos:station:wmo:42875:1,2015-08-12T16:23:00Z,28.1540,-89.8360,57.1,191.0,9.1,-2.8,'1111122,1111122,1111122' 
ADCP,ioos:station:wmo:42875:1,2015-08-12T18:23:00Z,28.1540,-89.8360,57.2,197.0,9.6,-3.2,'1111122,1111122,1111122' 
ADCP,ioos:station:wmo:42875:1,2015-08-12T19:23:00Z,28.1540,-89.8360,57.2,205.0,13.8,-2.7,'1111122,1111122,1111122' 
ADCP,ioos:station:wmo:42875:1,2015-08-12T20:23:00Z,28.1540,-89.8360,57.2,229.0,13.0,-3.7,'1111122,1111122,1111122' 
ADCP,ioos:station:wmo:42875:1,2015-08-12T21:23:00Z,28.1540,-89.8360,57.2,234.0,15.5,-3.5,'1111122,1111122,1111122' 
ADCP,ioos:station:wmo:42875:1,2015-08-12T22:13:00Z,28.1540,-89.8360,57.2,230.0,12.6,-3.1,'1111122,1111122,1111122' 
ADCP,ioos:station:wmo:42875:1,2015-08-13T00:23:00Z,28.1540,-89.8360,57.2,194.0,9.3,-2.0,'1111122,1111122,1111122' 
ADCP,ioos:station:wmo:42875:1,2015-08-13T01:23:00Z,28.1540,-89.8360,57.2,198.0,11.1,-2.6,'1111122,1111122,1111122' 
ADCP,ioos:station:wmo:42875:1,2015-08-13T02:23:00Z,28.1540,-89.8360,57.2,219.0,15.6,-2.9,'1111122,1111122,1111122' 
ADCP,ioos:station:wmo:42875:1,2015-08-13T03:23:00Z,28.1540,-89.8360,57.2,214.0,16.6,-2.3,'1111122,1111122,1111122' 
ADCP,ioos:station:wmo:42875:1,2015-08-13T04:23:00Z,28.1540,-89.8360,57.1,210.0,14.7,-2.0,'1111122,1111122,1111122' 
ADCP,ioos:station:wmo:42875:1,2015-08-13T05:23:00Z,28.1540,-89.8360,57.1,218.0,12.2,-3.1,'1111122,1111122,1111122' 
ADCP,ioos:station:wmo:42875:1,2015-08-13T06:23:00Z,28.1540,-89.8360,57.1,215.0,17.8,-2.7,'1111122,1111122,1111122' 
ADCP,ioos:station:wmo:42875:1,2015-08-13T06:43:00Z,28.1540,-89.8360,57.1,217.0,17.8,-3.5,'1111122,1111122,1111122' 
ADCP,ioos:station:wmo:42875:1,2015-08-13T09:23:00Z,28.1540,-89.8360,57.2,220.0,13.5,-2.1,'1111122,1111122,1111122' 
ADCP,ioos:station:wmo:42875:1,2015-08-13T10:23:00Z,28.1540,-89.8360,57.2,255.0,6.0,-1.5,'1111122,1111122,1111122' 
ADCP,ioos:station:wmo:42875:1,2015-08-13T11:23:00Z,28.1540,-89.8360,57.2,238.0,9.9,-2.1,'1111122,1111122,1111122' 
ADCP,ioos:station:wmo:42875:1,2015-08-13T12:23:00Z,28.1540,-89.8360,57.2,237.0,14.7,-3.2,'1111122,1111122,1111122' 
ADCP,ioos:station:wmo:42875:1,2015-08-13T13:23:00Z,28.1540,-89.8360,57.2,231.0,9.9,-1.6,'1111122,1111122,1111122' 
ADCP,ioos:station:wmo:42875:1,2015-08-13T14:23:00Z,28.1540,-89.8360,57.2,231.0,11.7,-3.8,'1111122,1111122,1111122' 
ADCP,ioos:station:wmo:42875:1,2015-08-13T15:23:00Z,28.1540,-89.8360,57.2,244.0,7.8,-2.0,'1111122,1111122,1111122' 
ADCP,ioos:station:wmo:42875:1,2015-08-13T16:23:00Z,28.1540,-89.8360,57.2,236.0,5.0,-3.0,'1111122,1111122,1111122' 
ADCP,ioos:station:wmo:42875:1,2015-08-13T17:23:00Z,28.1540,-89.8360,57.2,178.0,9.2,-1.2,'1111122,1111122,1111122' 
ADCP,ioos:station:wmo:42875:1,2015-08-13T18:23:00Z,28.1540,-89.8360,57.2,219.0,10.7,-2.6,'1111122,1111122,1111122' 
ADCP,ioos:station:wmo:42875:1,2015-08-13T19:23:00Z,28.1540,-89.8360,57.2,189.0,7.4,-2.7,'1111122,1111122,1111122' 
ADCP,ioos:station:wmo:42875:1,2015-08-13T20:23:00Z,28.1540,-89.8360,57.2,197.0,9.9,-2.4,'1111122,1111122,1111122' 
ADCP,ioos:station:wmo:42875:1,2015-08-13T22:13:00Z,28.1540,-89.8360,57.2,203.0,14.3,-1.8,'1111122,1111122,1111122' 
ADCP,ioos:station:wmo:42875:1,2015-08-13T23:23:00Z,28.1540,-89.8360,57.2,205.0,14.9,-2.1,'1111122,1111122,1111122' 
ADCP,ioos:station:wmo:42875:1,2015-08-14T00:23:00Z,28.1540,-89.8360,57.2,232.0,15.3,-2.2,'1111122,1111122,1111122' 
ADCP,ioos:station:wmo:42875:1,2015-08-14T01:23:00Z,28.1540,-89.8360,57.2,226.0,16.7,-4.1,'1111122,1111122,1111122' 
ADCP,ioos:station:wmo:42875:1,2015-08-14T03:23:00Z,28.1540,-89.8360,57.1,219.0,11.5,-3.8,'1111122,1111122,1111122' 
ADCP,ioos:station:wmo:42875:1,2015-08-14T04:23:00Z,28.1540,-89.8360,57.1,205.0,13.2,-2.9,'1111122,1111122,1111122' 
ADCP,ioos:station:wmo:42875:1,2015-08-14T05:23:00Z,28.1540,-89.8360,57.1,193.0,9.1,-2.6,'1111122,1111122,1111122' 
ADCP,ioos:station:wmo:42875:1,2015-08-14T06:23:00Z,28.1540,-89.8360,57.2,216.0,18.2,-2.2,'1111122,1111122,1111122' 
ADCP,ioos:station:wmo:42875:1,2015-08-14T06:43:00Z,28.1540,-89.8360,57.1,234.0,15.0,-2.5,'1111122,1111122,1111122' 
ADCP,ioos:station:wmo:42875:1,2015-08-14T09:23:00Z,28.1540,-89.8360,57.1,209.0,12.4,0.2,'1111122,1111122,1111122' 
ADCP,ioos:station:wmo:42875:1,2015-08-14T10:23:00Z,28.1540,-89.8360,57.1,203.0,14.3,0.9,'1111122,1111122,1111122' 
ADCP,ioos:station:wmo:42875:1,2015-08-14T11:23:00Z,28.1540,-89.8360,57.2,218.0,13.6,-0.1,'1111122,1111122,1111122' 
ADCP,ioos:station:wmo:42875:1,2015-08-14T12:23:00Z,28.1540,-89.8360,57.2,235.0,14.5,-4.2,'1111122,1111122,1111122' 
ADCP,ioos:station:wmo:42875:1,2015-08-14T13:23:00Z,28.1540,-89.8360,57.2,228.0,14.2,-3.1,'1111122,1111122,1111122' 
ADCP,ioos:station:wmo:42875:1,2015-08-14T14:23:00Z,28.1540,-89.8360,57.1,235.0,19.9,-3.8,'1111122,1111122,1111122' 
ADCP,ioos:station:wmo:42875:1,2015-08-14T15:23:00Z,28.1540,-89.8360,57.1,226.0,15.8,-3.9,'1111122,1111122,1111122' 
ADCP,ioos:station:wmo:42875:1,2015-08-14T17:23:00Z,28.1540,-89.8360,57.2,225.0,12.9,-3.9,'1111122,1111122,1111122' 
ADCP,ioos:station:wmo:42875:1,2015-08-14T17:53:00Z,28.1540,-89.8360,57.1,233.0,10.9,-3.9,'1111122,1111122,1111122' 
ADCP,ioos:station:wmo:42875:1,2015-08-14T18:25:00Z,28.1540,-89.8360,57.0,211.0,13.1,-1.6,'1111122,1111122,1111122' 
ADCP,ioos:station:wmo:42875:1,2015-08-14T19:25:00Z,28.1540,-89.8360,57.1,198.0,6.8,-2.4,'1111122,1111122,1111122' 
ADCP,ioos:station:wmo:42875:1,2015-08-14T20:25:00Z,28.1540,-89.8360,57.1,196.0,9.1,-1.1,'1111122,1111122,1111122' 
ADCP,ioos:station:wmo:42875:1,2015-08-14T21:25:00Z,28.1540,-89.8360,57.1,199.0,7.2,-1.1,'1111122,1111122,1111122' 
ADCP,ioos:station:wmo:42875:1,2015-08-14T22:25:00Z,28.1540,-89.8360,57.1,187.0,9.8,-1.2,'1111122,1111122,1111122' 
ADCP,ioos:station:wmo:42875:1,2015-08-14T23:25:00Z,28.1540,-89.8360,57.1,195.0,15.1,-2.0,'1111122,1111122,1111122' 
ADCP,ioos:station:wmo:42875:1,2015-08-15T00:25:00Z,28.1540,-89.8360,57.1,210.0,6.7,-0.7,'1111122,1111122,1111122' 
ADCP,ioos:station:wmo:42875:1,2015-08-15T01:25:00Z,28.1540,-89.8360,57.1,198.0,7.7,-2.4,'1111122,1111122,1111122' 
ADCP,ioos:station:wmo:42875:1,2015-08-15T02:25:00Z,28.1540,-89.8360,57.1,166.0,10.9,-1.4,'1111122,1111122,1111122' 
ADCP,ioos:station:wmo:42875:1,2015-08-15T03:25:00Z,28.1540,-89.8360,57.1,160.0,15.5,-2.0,'1111122,1111122,1111122' 
ADCP,ioos:station:wmo:42875:1,2015-08-15T04:25:00Z,28.1540,-89.8360,57.1,168.0,11.3,-3.2,'1111122,1111122,1111122' 
ADCP,ioos:station:wmo:42875:1,2015-08-15T05:25:00Z,28.1540,-89.8360,57.1,183.0,14.0,-2.0,'1111122,1111122,1111122' 
ADCP,ioos:station:wmo:42875:1,2015-08-15T05:45:00Z,28.1540,-89.8360,57.1,205.0,8.6,-1.0,'1111122,1111122,1111122' 
ADCP,ioos:station:wmo:42875:1,2015-08-16T10:27:00Z,28.1540,-89.8360,57.1,185.0,7.6,-1.6,'1111122,1111122,1111122' 
ADCP,ioos:station:wmo:42875:1,2015-08-16T11:27:00Z,28.1540,-89.8360,57.1,174.0,10.1,-1.7,'1111122,1111122,1111122' 
ADCP,ioos:station:wmo:42875:1,2015-08-16T12:27:00Z,28.1540,-89.8360,57.1,194.0,7.9,-1.9,'1111122,1111122,1111122' 
ADCP,ioos:station:wmo:42875:1,2015-08-16T13:27:00Z,28.1540,-89.8360,57.1,188.0,9.9,-0.2,'1111122,1111122,1111122' 
ADCP,ioos:station:wmo:42875:1,2015-08-16T14:27:00Z,28.1540,-89.8360,57.1,187.0,12.4,-1.5,'1111122,1111122,1111122' 
ADCP,ioos:station:wmo:42875:1,2015-08-16T15:27:00Z,28.1540,-89.8360,57.1,187.0,11.9,-1.7,'1111122,1111122,1111122' 
ADCP,ioos:station:wmo:42875:1,2015-08-16T16:27:00Z,28.1540,-89.8360,57.1,164.0,9.6,-1.6,'1111122,1111122,1111122' 
ADCP,ioos:station:wmo:42875:1,2015-08-16T17:27:00Z,28.1540,-89.8360,57.1,185.0,7.6,-2.4,'1111122,1111122,1111122' 
ADCP,ioos:station:wmo:42875:1,2015-08-16T18:27:00Z,28.1540,-89.8360,57.1,186.0,10.5,-2.6,'1111122,1111122,1111122' 
ADCP,ioos:station:wmo:42875:1,2015-08-16T19:27:00Z,28.1540,-89.8360,57.1,162.0,12.6,-2.1,'1111122,1111122,1111122' 
ADCP,ioos:station:wmo:42875:1,2015-08-16T20:27:00Z,28.1540,-89.8360,57.1,163.0,13.7,-2.0,'1111122,1111122,1111122' 
ADCP,ioos:station:wmo:42875:1,2015-08-16T21:27:00Z,28.1540,-89.8360,57.1,187.0,12.5,-0.9,'1111122,1111122,1111122' 
ADCP,ioos:station:wmo:42875:1,2015-08-16T22:27:00Z,28.1540,-89.8360,57.1,181.0,10.1,-1.3,'1111122,1111122,1111122' 
ADCP,ioos:station:wmo:42875:1,2015-08-16T22:47:00Z,28.1540,-89.8360,57.1,177.0,11.6,-1.0,'1111122,1111122,1111122' 
ADCP,ioos:station:wmo:42875:1,2015-08-17T03:17:00Z,28.1540,-89.8360,57.1,193.0,14.4,-2.2,'1111122,1111122,1111122' 
ADCP,ioos:station:wmo:42875:1,2015-08-17T03:47:00Z,28.1540,-89.8360,57.1,183.0,15.8,-2.0,'1111122,1111122,1111122' 
ADCP,ioos:station:wmo:42875:1,2015-08-17T05:27:00Z,28.1540,-89.8360,57.0,200.0,13.9,-2.0,'1111122,1111122,1111122' 
ADCP,ioos:station:wmo:42875:1,2015-08-17T06:07:00Z,28.1540,-89.8360,57.0,197.0,13.2,-2.7,'1111122,1111122,1111122' 
ADCP,ioos:station:wmo:42875:1,2015-08-17T09:27:00Z,28.1540,-89.8360,57.0,151.0,7.6,-2.5,'1111122,1111122,1111122' 
ADCP,ioos:station:wmo:42875:1,2015-08-17T10:27:00Z,28.1540,-89.8360,57.1,164.0,10.7,-1.2,'1111122,1111122,1111122' 
ADCP,ioos:station:wmo:42875:1,2015-08-17T11:27:00Z,28.1540,-89.8360,57.1,154.0,8.3,0.1,'1111122,1111122,1111122' 
ADCP,ioos:station:wmo:42875:1,2015-08-17T12:27:00Z,28.1540,-89.8360,57.1,152.0,6.6,-1.1,'1111122,1111122,1111122' 
ADCP,ioos:station:wmo:42875:1,2015-08-17T13:27:00Z,28.1540,-89.8360,57.1,151.0,7.1,-1.8,'1111122,1111122,1111122' 
ADCP,ioos:station:wmo:42875:1,2015-08-17T14:27:00Z,28.1540,-89.8360,57.1,140.0,6.4,-1.2,'1111122,1111122,1111122' 
ADCP,ioos:station:wmo:42875:1,2015-08-17T15:27:00Z,28.1540,-89.8360,57.1,124.0,4.2,-2.2,'1111122,1111122,1111122' 
ADCP,ioos:station:wmo:42875:1,2015-08-17T16:27:00Z,28.1540,-89.8360,57.1,141.0,8.0,-1.0,'1111122,1111122,1111122' 
ADCP,ioos:station:wmo:42875:1,2015-08-17T17:27:00Z,28.1540,-89.8360,57.1,118.0,8.6,-3.0,'1111122,1111122,1111122' 
ADCP,ioos:station:wmo:42875:1,2015-08-17T17:57:00Z,28.1540,-89.8360,57.1,145.0,10.3,-5.4,'1111122,1111122,1111122' 
ADCP,ioos:station:wmo:42875:1,2015-08-17T19:17:00Z,28.1540,-89.8360,57.1,125.0,9.1,-1.7,'1111122,1111122,1111122' 
ADCP,ioos:station:wmo:42875:1,2015-08-17T20:27:00Z,28.1540,-89.8360,57.1,109.0,10.9,-3.3,'1111122,1111122,1111122' 
ADCP,ioos:station:wmo:42875:1,2015-08-17T21:27:00Z,28.1540,-89.8360,57.1,107.0,12.5,-2.2,'1111122,1111122,1111122' 
ADCP,ioos:station:wmo:42875:1,2015-08-17T22:27:00Z,28.1540,-89.8360,57.1,115.0,15.5,-3.4,'1111122,1111122,1111122' 
ADCP,ioos:station:wmo:42875:1,2015-08-18T00:27:00Z,28.1540,-89.8360,57.1,142.0,15.7,-1.6,'1111122,1111122,1111122' 
ADCP,ioos:station:wmo:42875:1,2015-08-18T01:27:00Z,28.1540,-89.8360,57.1,119.0,6.4,-1.3,'1111122,1111122,1111122' 
ADCP,ioos:station:wmo:42875:1,2015-08-18T02:17:00Z,28.1540,-89.8360,57.1,125.0,4.4,-1.9,'1111122,1111122,1111122' 
ADCP,ioos:station:wmo:42875:1,2015-08-18T09:26:00Z,28.1540,-89.8360,57.1,148.0,13.9,-4.7,'1111122,1111122,1111122' 
ADCP,ioos:station:wmo:42875:1,2015-08-18T10:26:00Z,28.1540,-89.8360,57.1,161.0,7.6,-3.5,'1111122,1111122,1111122' 
ADCP,ioos:station:wmo:42875:1,2015-08-18T11:26:00Z,28.1540,-89.8360,57.1,96.0,5.8,-0.8,'1111122,1111122,1111122' 
ADCP,ioos:station:wmo:42875:1,2015-08-18T12:26:00Z,28.1540,-89.8360,57.2,131.0,8.0,-4.1,'1111122,1111122,1111122' 
ADCP,ioos:station:wmo:42875:1,2015-08-18T13:26:00Z,28.1540,-89.8360,57.1,41.0,4.9,-3.5,'1111122,1111122,1111122' 
ADCP,ioos:station:wmo:42875:1,2015-08-18T14:46:00Z,28.1540,-89.8360,57.1,38.0,12.4,-5.0,'1111122,1111122,1111122' 
ADCP,ioos:station:wmo:42875:1,2015-08-18T15:26:00Z,28.1540,-89.8360,57.1,39.0,16.1,-4.5,'1111122,1111122,1111122' 
ADCP,ioos:station:wmo:42875:1,2015-08-18T16:26:00Z,28.1540,-89.8360,57.2,65.0,14.0,-4.5,'1111122,1111122,1111122' 
ADCP,ioos:station:wmo:42875:1,2015-08-18T17:26:00Z,28.1540,-89.8360,57.1,58.0,16.2,-5.9,'1111122,1111122,1111122' 
ADCP,ioos:station:wmo:42875:1,2015-08-18T18:26:00Z,28.1540,-89.8360,57.1,68.0,21.9,-2.2,'1111122,1111122,1111122' 
ADCP,ioos:station:wmo:42875:1,2015-08-18T19:26:00Z,28.1540,-89.8360,57.1,69.0,22.8,-2.7,'1111122,1111122,1111122' 
ADCP,ioos:station:wmo:42875:1,2015-08-18T20:26:00Z,28.1540,-89.8360,57.2,64.0,22.8,-2.4,'1111122,1111122,1111122' 
ADCP,ioos:station:wmo:42875:1,2015-08-18T21:26:00Z,28.1540,-89.8360,57.2,64.0,24.1,-1.1,'1111122,1111122,1111122' 
ADCP,ioos:station:wmo:42875:1,2015-08-18T22:26:00Z,28.1540,-89.8360,57.2,73.0,28.4,-1.1,'1111122,1111122,1111122' 
ADCP,ioos:station:wmo:42875:1,2015-08-18T23:26:00Z,28.1540,-89.8360,57.1,85.0,32.8,0.4,'1111122,1111122,1111122' 
ADCP,ioos:station:wmo:42875:1,2015-08-19T00:26:00Z,28.1540,-89.8360,57.2,82.0,26.6,0.9,'1111122,1111122,1111122' 
ADCP,ioos:station:wmo:42875:1,2015-08-19T01:26:00Z,28.1540,-89.8360,57.1,92.0,30.3,-0.4,'1111122,1111122,1111122' 
ADCP,ioos:station:wmo:42875:1,2015-08-19T02:26:00Z,28.1540,-89.8360,57.1,92.0,28.4,-0.9,'1111122,1111122,1111122' 
ADCP,ioos:station:wmo:42875:1,2015-08-19T03:26:00Z,28.1540,-89.8360,57.1,83.0,23.8,-0.3,'1111122,1111122,1111122' 
ADCP,ioos:station:wmo:42875:1,2015-08-19T04:26:00Z,28.1540,-89.8360,57.1,94.0,21.1,-0.4,'1111122,1111122,1111122' 
ADCP,ioos:station:wmo:42875:1,2015-08-19T05:26:00Z,28.1540,-89.8360,57.1,100.0,19.5,-0.4,'1111122,1111122,1111122' 
ADCP,ioos:station:wmo:42875:1,2015-08-19T06:26:00Z,28.1540,-89.8360,57.1,114.0,20.8,0.2,'1111122,1111122,1111122' 
ADCP,ioos:station:wmo:42875:1,2015-08-19T06:36:00Z,28.1540,-89.8360,57.1,115.0,20.5,-0.3,'1111122,1111122,1111122' 